Showing default

STARK, 65299

Orbit data source: Space-Track

STARK, 65299 is a payload satellite owned by E-Space (RW) in SSO that was launched on Sat, 23 Aug 2025 UTC via an ELECTRON launch vehicle from the Rocket Lab Launch Complex (RLLC). Payload-class satellites include a variety of spacecraft equipped with specific instruments for various scientific and technological missions. These include communications satellites like Starlink; space stations such as the ISS; scientific satellites like the Hubble; Earth observation satellites from companies like Planet Labs, Umbra, and HawkEye 360; GPS; miniature CubeSats for education and research; and military/defense satellites.

Loading next visibility...
Identifier
65299, 2025-185C
Orbit
SSO
Country
Flag of RWRW / RWA
Related business
Manufacturer
E-Space
Mission
Operational Commercial Communications
Bus & Motor
CALISTUS, Unknown motor
Mass
~30 kg wet, ~30 kg dry
Launch date (UTC)
2025-08-23 (10 months ago)
Launch vehicle
ELECTRON
Launch site
Rocket Lab Launch Complex (RLLC)
Object type
Payload
Rocket body
Debris
Shape & HBR
Box + 1 Pan, 2.8 m
Radar Cross Section
0.475 m², Large (>1 m²)

Expand to show TLE details & history
Last TLE update: 8 hours ago

TLE from 8 hours ago
0 STARK
1 65299U 25185C   26162.78432933  .00001826  00000-0  24114-3 0  9990
2 65299  97.9616 246.4185 0013859 109.5709 250.7001 14.81198367 43053
Epoch: 2026-06-11T18:49Z
TLE epoch observation values (Epoch: 2026-06-11T18:49:26.054Z)
Latitude
-0.00001°
Longitude
63.93679°
Altitude
631.786 km
Speed
7.541 km/s
True Right ascension
16h 25m 40s
True Declination
0° 00' 00"
Sunlit
Object was in full shadow at epoch
Visualization orbit readout
Latitude
Unknown
Longitude
Unknown
Altitude
Unknown
Speed
Unknown
Apparent Right ascension
Unknown
Apparent Declination
Unknown
Sunlit
N/A
Visualization observer readout
Local Sidereal Time
12:53:59
Azimuth
Unknown
Elevation
Unknown
Doppler factor
Unknown
Orbital elements
Apogee altitude
632.288 km
Perigee altitude
612.884 km
Semi-major axis
7,000.723 km
Eccentricity
0.00139
Inclination
97.9616°
RAAN
246.4185°
Arg. of periapsis
109.5709°
True anomaly
250.5503°
Mean anomaly
250.7001°
Eccentric anomaly
250.62519°
Mean motion
3.70535 °/min
Orbital period
97.16 mins
BSTAR
0.00024114
Loading maneuver chart data...
Computing Atmospheric mass density...
Loading historical data...
Loading historical data...
Loading historical data...
Loading historical data...
Loading historical data...
Loading historical data...
Loading historical data...

Documentation

Showing up to 5 results
|